Location: Kimberly
(42.5380°N, 114.3640°W)
Time: 14:42:09
(UTC-07:00)

Tiangong 2 - Visible Passes

Search period start: 23 January 2019 00:00
Search period end: 02 February 2019 00:00
Orbit: 380 x 392 km, 42.8° (Epoch: 23 January)

Date Brightness Start Highest point End Pass type
(mag) Time Alt. Az. Time Alt. Az. Time Alt. Az.
23 Jan 2.7 05:49:56 35° E 05:49:56 35° E 05:51:57 10° E visible
23 Jan 1.6 07:22:22 10° W 07:25:30 53° SSW 07:28:37 10° ESE visible
24 Jan 1.1 06:25:53 53° W 06:26:30 74° SSW 06:29:42 10° ESE visible
25 Jan 3.9 05:29:37 19° E 05:29:37 19° E 05:30:41 10° E visible
25 Jan 2.1 07:01:52 15° W 07:04:07 34° SSW 07:07:03 10° SE visible
26 Jan 1.8 06:05:37 47° SSE 06:05:37 47° SSE 06:08:17 10° ESE visible
27 Jan 2.8 06:41:40 19° WSW 06:42:40 22° SSW 06:45:11 10° SSE visible
28 Jan 3.5 05:45:30 19° SSE 05:45:30 19° SSE 05:46:40 10° SE visible
29 Jan 3.5 06:21:40 13° SSW 06:21:40 13° SSW 06:22:39 10° S visible
